Location: Eurasberg
(48.3353°N, 11.0839°E)
Time: 05:45:40
(UTC+00:00)

Gbstr 26 Del rocket - Pass Details

Date: 18 January 2026
Orbit: 490 x 1217 km, 51.8° (Epoch: 10 February)

Event Time Altitude Azimuth Distance (km) Brightness Sun altitude
Exits shadow 06:15:40 - 268° (W) 3,473 6.3 -7.4°
Reaches altitude 10° 06:17:03 10° 270° (W) 2,992 6.0 -7.2°
Maximum altitude 06:24:15 67° 352° (N) 1,073 4.2 -6.1°
Drops below altitude 10° 06:30:15 10° 76° (ENE) 2,503 7.0 -5.1°
Sets 06:32:33 0° 79° (E) 3,330 7.8 -4.8°
